,,Stat1,,Stat2,,Stat3,,Stat4,,Wind1,,Wind1,
time,status,PR1M_SUM,status,RH1M_AVG,status,SR1M_AVG,status,TA1M_AVG,status,W1dAve1m,status,W1sAve1m,
1999-09-16, 00:00:01,VALID,0,VALID,99.6048,VALID,0.0509425,VALID,18.9847,VALID,255,VALID,0.539063,
1999-09-16, 00:01:00,VALID,0,VALID,99.6493,VALID,0.0849042,VALID,19.0006,VALID,252,VALID,0.342928,
1999-09-16, 00:02:00,VALID,0,VALID,99.6938,VALID,0.0679233,VALID,19.0265,VALID,248,VALID,0.573438,
1999-09-16, 00:03:00,VALID,0,VALID,99.7154,VALID,0.0509425,VALID,19.0262,VALID,249,VALID,0.644345,
1999-09-16, 00:04:00,VALID,0,VALID,99.7014,VALID,0.0509425,VALID,19.0267,VALID,247,VALID,0.309462,
1999-09-16, 00:05:00,VALID,0,VALID,99.69,VALID,0.0509425,VALID,19.0297,VALID,245,VALID,0.293174,
1999-09-16, 00:06:00,VALID,0,VALID,99.6671,VALID,0.0679233,VALID,19.0038,VALID,245,VALID,0.300781,
1999-09-16, 00:07:00,VALID,0,VALID,99.6646,VALID,0.0679233,VALID,18.9907,VALID,246,VALID,0.127956,
1999-09-16, 00:08:00,VALID,0,VALID,99.718,VALID,0.0509425,VALID,18.9979,VALID,254,VALID,0.22923,
1999-09-16, 00:09:00,VALID,0,VALID,99.7141,VALID,0.0339617,VALID,18.9941,VALID,230,VALID,0.330025,
1999-09-16, 00:10:00,VALID,0,VALID,99.7154,VALID,0,VALID,18.9812,VALID,209,VALID,0.342483,
1999-09-16, 00:11:00,VALID,0,VALID,99.718,VALID,0.0679233,VALID,18.9715,VALID,196,VALID,0.360377,
1999-09-16, 00:12:00,VALID,0,VALID,99.7396,VALID,0.0169808,VALID,18.9817,VALID,202,VALID,0.592722,
1999-09-16, 00:13:00,VALID,0,VALID,99.7218,VALID,0.0339617,VALID,18.9646,VALID,193,VALID,0.573269,
1999-09-16, 00:14:00,VALID,0,VALID,99.8121,VALID,0.0169808,VALID,18.9946,VALID,181,VALID,0.681949,
1999-09-16, 00:15:00,VALID,0,VALID,99.7917,VALID,0.0509425,VALID,18.9939,VALID,180,VALID,0.655248,
1999-09-16, 00:16:00,VALID,0,VALID,99.8044,VALID,0.0679233,VALID,19.0041,VALID,185,VALID,0.685096,
1999-09-16, 00:17:00,VALID,0,VALID,99.7587,VALID,0.0169808,VALID,18.9914,VALID,188,VALID,0.646635,
1999-09-16, 00:18:00,VALID,0,VALID,99.7192,VALID,-0.0169808,VALID,18.9665,VALID,184,VALID,0.73972,
1999-09-16, 00:19:00,VALID,0,VALID,99.7052,VALID,-0.0679233,VALID,18.9406,VALID,197,VALID,0.957812,
1999-09-16, 00:20:00,VALID,0,VALID,99.6849,VALID,-0.0849042,VALID,18.9441,VALID,195,VALID,0.969984,
1999-09-16, 00:21:00,VALID,0,VALID,99.6404,VALID,-0.0339617,VALID,18.9575,VALID,187,VALID,0.992622,
1999-09-16, 00:22:00,VALID,0,VALID,99.5654,VALID,-0.0849042,VALID,18.9632,VALID,186,VALID,1.09575,
1999-09-16, 00:23:00,VALID,0,VALID,99.4725,VALID,-0.101885,VALID,18.9991,VALID,191,VALID,0.851563,
1999-09-16, 00:24:01,VALID,0,VALID,99.3327,VALID,-0.0509425,VALID,19.015,VALID,194,VALID,0.89939,
1999-09-16, 00:25:00,VALID,0,VALID,99.2271,VALID,-0.0339617,VALID,19.0378,VALID,190,VALID,0.923142,
1999-09-16, 00:26:00,VALID,0,VALID,99.1343,VALID,-0.0679233,VALID,19.0508,VALID,193,VALID,0.638622,
1999-09-16, 00:27:00,VALID,0,VALID,99.0631,VALID,-0.0849042,VALID,19.0538,VALID,207,VALID,0.534128,
1999-09-16, 00:28:00,VALID,0,VALID,99.0377,VALID,-0.101885,VALID,19.0473,VALID,202,VALID,0.407095,
1999-09-16, 00:29:00,VALID,0,VALID,99.0593,VALID,-0.0679233,VALID,19.0505,VALID,216,VALID,0.559622,
1999-09-16, 00:30:00,VALID,0,VALID,99.0783,VALID,-0.0679233,VALID,19.0535,VALID,205,VALID,0.659128,
1999-09-16, 00:31:00,VALID,0,VALID,99.1292,VALID,-0.0849042,VALID,19.0413,VALID,191,VALID,0.866016,
1999-09-16, 00:32:00,VALID,0,VALID,99.1686,VALID,-0.0509425,VALID,19.0217,VALID,215,VALID,0.753447,
1999-09-16, 00:33:00,VALID,0,VALID,99.2106,VALID,-0.0679233,VALID,19.0058,VALID,204,VALID,0.895059,
1999-09-16, 00:34:00,VALID,0,VALID,99.3403,VALID,-0.0679233,VALID,18.9988,VALID,220,VALID,1.06549,
1999-09-16, 00:35:01,VALID,0,VALID,99.4242,VALID,-0.0679233,VALID,18.9986,VALID,214,VALID,0.61849,
1999-09-16, 00:36:00,VALID,0,VALID,99.4687,VALID,-0.0849042,VALID,18.9889,VALID,224,VALID,0.634252,
1999-09-16, 00:37:00,VALID,0,VALID,99.5094,VALID,-0.101885,VALID,18.9856,VALID,210,VALID,0.582648,
1999-09-16, 00:38:00,VALID,0,VALID,99.545,VALID,-0.0679233,VALID,18.9926,VALID,229,VALID,0.767721,
1999-09-16, 00:39:00,VALID,0,VALID,99.5488,VALID,-0.0169808,VALID,18.9894,VALID,228,VALID,0.653083,
1999-09-16, 00:40:00,VALID,0,VALID,99.5717,VALID,-0.0679233,VALID,18.9528,VALID,215,VALID,0.866343,
1999-09-16, 00:41:00,VALID,0,VALID,99.6264,VALID,-0.0679233,VALID,18.96,VALID,207,VALID,0.921258,
1999-09-16, 00:42:00,VALID,0,VALID,99.6582,VALID,-0.0849042,VALID,18.9503,VALID,200,VALID,0.981055,
1999-09-16, 00:43:00,VALID,0,VALID,99.6849,VALID,-0.0509425,VALID,18.9468,VALID,190,VALID,0.786106,
1999-09-16, 00:44:00,VALID,0,VALID,99.6938,VALID,-0.0509425,VALID,18.9145,VALID,178,VALID,1.0968,
1999-09-16, 00:45:00,VALID,0,VALID,99.7294,VALID,-0.0509425,VALID,18.9148,VALID,178,VALID,1.12965,
1999-09-16, 00:46:01,VALID,0,VALID,99.8108,VALID,-0.0679233,VALID,18.9314,VALID,173,VALID,1.1609,
1999-09-16, 00:47:00,VALID,0,VALID,99.7752,VALID,-0.0339617,VALID,18.9078,VALID,167,VALID,0.948918,
1999-09-16, 00:48:00,VALID,0,VALID,99.854,VALID,0.0679233,VALID,18.9071,VALID,185,VALID,0.981086,
1999-09-16, 00:49:00,VALID,0,VALID,99.8527,VALID,0.0509425,VALID,18.9203,VALID,180,VALID,0.903294,
1999-09-16, 00:50:00,VALID,0,VALID,99.8744,VALID,0.0339617,VALID,18.93,VALID,186,VALID,1.04461,
1999-09-16, 00:51:00,VALID,0,VALID,99.8795,VALID,0.0509425,VALID,18.9367,VALID,186,VALID,1.02244,
1999-09-16, 00:52:00,VALID,0,VALID,99.8807,VALID,0,VALID,18.9203,VALID,195,VALID,1.05108,
1999-09-16, 00:53:00,VALID,0,VALID,99.868,VALID,0,VALID,18.927,VALID,202,VALID,0.813101,
1999-09-16, 00:54:00,VALID,0,VALID,99.854,VALID,0.0169808,VALID,18.9265,VALID,195,VALID,0.753906,
1999-09-16, 00:55:00,VALID,0,VALID,99.8286,VALID,0.0339617,VALID,18.9394,VALID,186,VALID,1.0002,
1999-09-16, 00:56:00,VALID,0,VALID,99.7777,VALID,0.0169808,VALID,18.9263,VALID,182,VALID,1.08224,
1999-09-16, 00:57:01,VALID,0,VALID,99.7472,VALID,0.0339617,VALID,18.9427,VALID,179,VALID,1.02409,
1999-09-16, 00:58:00,VALID,0,VALID,99.7002,VALID,0.0509425,VALID,18.9588,VALID,175,VALID,0.844952,
1999-09-16, 00:59:00,VALID,0,VALID,99.6556,VALID,0.0509425,VALID,18.9648,VALID,173,VALID,0.601563,
1999-09-16, 01:00:00,VALID,0,VALID,99.5895,VALID,0,VALID,18.965,VALID,178,VALID,0.429497,
1999-09-16, 01:01:00,VALID,0,VALID,99.5399,VALID,0.0169808,VALID,18.9526,VALID,190,VALID,0.556588,
1999-09-16, 01:02:00,VALID,0,VALID,99.5323,VALID,-0.0339617,VALID,18.9565,VALID,202,VALID,0.648838,
1999-09-16, 01:03:00,VALID,0,VALID,99.5425,VALID,-0.101885,VALID,18.9642,VALID,210,VALID,0.340049,
1999-09-16, 01:04:00,VALID,0,VALID,99.5234,VALID,-0.0679233,VALID,18.9732,VALID,205,VALID,0.116343,
1999-09-16, 01:05:00,VALID,0,VALID,99.4891,VALID,-0.0509425,VALID,18.9864,VALID,215,VALID,0.444696,
1999-09-16, 01:06:00,VALID,0,VALID,99.4369,VALID,-0.0339617,VALID,19.0055,VALID,197,VALID,0.375411,
1999-09-16, 01:07:00,VALID,0,VALID,99.3403,VALID,-0.0509425,VALID,18.9792,VALID,185,VALID,0.539258,
1999-09-16, 01:08:01,VALID,0,VALID,99.2691,VALID,-0.0679233,VALID,18.9767,VALID,202,VALID,0.605469,
1999-09-16, 01:09:00,VALID,0,VALID,99.2691,VALID,-0.0849042,VALID,18.96,VALID,212,VALID,0.4981,
1999-09-16, 01:10:00,VALID,0,VALID,99.2373,VALID,-0.0679233,VALID,18.9635,VALID,203,VALID,0.630285,
1999-09-16, 01:11:00,VALID,0,VALID,99.1496,VALID,-0.101885,VALID,18.9536,VALID,201,VALID,0.711806,
1999-09-16, 01:12:00,VALID,0,VALID,98.9957,VALID,-0.0849042,VALID,18.9605,VALID,204,VALID,0.87315,
1999-09-16, 01:13:00,VALID,0,VALID,98.8482,VALID,-0.101885,VALID,18.9637,VALID,212,VALID,1.01706,
1999-09-16, 01:14:00,VALID,0,VALID,98.7452,VALID,-0.0679233,VALID,18.9702,VALID,201,VALID,1.31517,
1999-09-16, 01:15:00,VALID,0,VALID,98.6218,VALID,-0.0169808,VALID,18.9794,VALID,208,VALID,1.25106,
1999-09-16, 01:16:00,VALID,0,VALID,98.5201,VALID,-0.0679233,VALID,19.0023,VALID,209,VALID,0.954181,
1999-09-16, 01:17:00,VALID,0,VALID,98.454,VALID,-0.0679233,VALID,18.9926,VALID,205,VALID,0.89597,
1999-09-16, 01:18:00,VALID,0,VALID,98.4108,VALID,-0.101885,VALID,18.9958,VALID,202,VALID,0.731055,
1999-09-16, 01:19:01,VALID,0,VALID,98.4196,VALID,-0.0849042,VALID,18.9923,VALID,187,VALID,0.958404,
1999-09-16, 01:20:00,VALID,0,VALID,98.4718,VALID,-0.0679233,VALID,18.9995,VALID,210,VALID,0.888338,
1999-09-16, 01:21:00,VALID,0,VALID,98.5583,VALID,-0.101885,VALID,18.9831,VALID,207,VALID,1.00422,
1999-09-16, 01:22:00,VALID,0,VALID,98.59,VALID,-0.101885,VALID,18.9769,VALID,215,VALID,1.34671,
1999-09-16, 01:23:00,VALID,0,VALID,98.5697,VALID,-0.0849042,VALID,18.9769,VALID,218,VALID,1.19772,
1999-09-16, 01:24:00,VALID,0,VALID,98.4591,VALID,-0.0849042,VALID,18.9573,VALID,214,VALID,0.997122,
1999-09-16, 01:25:00,VALID,0,VALID,98.3599,VALID,-0.0679233,VALID,18.967,VALID,217,VALID,1.00422,
1999-09-16, 01:26:00,VALID,0,VALID,98.1564,VALID,-0.0509425,VALID,18.9702,VALID,206,VALID,1.1692,
1999-09-16, 01:27:00,VALID,0,VALID,97.6491,VALID,-0.0849042,VALID,18.9603,VALID,208,VALID,1.3107,
1999-09-16, 01:28:00,VALID,0,VALID,97.2943,VALID,-0.0679233,VALID,18.9958,VALID,202,VALID,0.857372,
1999-09-16, 01:29:00,VALID,0,VALID,97.0629,VALID,-0.0509425,VALID,19.0182,VALID,210,VALID,0.749599,
1999-09-16, 01:30:01,VALID,0,VALID,96.9001,VALID,-0.0849042,VALID,19.0346,VALID,191,VALID,1.12685,
1999-09-16, 01:31:00,VALID,0,VALID,96.9764,VALID,-0.0679233,VALID,19.0314,VALID,201,VALID,0.657422,
1999-09-16, 01:32:00,VALID,0,VALID,96.9637,VALID,-0.101885,VALID,19.0351,VALID,210,VALID,1.25781,
1999-09-16, 01:33:00,VALID,0,VALID,97.04,VALID,-0.0679233,VALID,19.0316,VALID,213,VALID,1.12435,
1999-09-16, 01:34:00,VALID,0,VALID,96.9764,VALID,-0.0679233,VALID,19.0249,VALID,209,VALID,1.3768,
1999-09-16, 01:35:00,VALID,0,VALID,97.087,VALID,-0.0679233,VALID,19.0416,VALID,214,VALID,1.272,
1999-09-16, 01:36:00,VALID,0,VALID,97.2688,VALID,-0.0849042,VALID,19.0286,VALID,222,VALID,1.51963,
1999-09-16, 01:37:00,VALID,0,VALID,97.424,VALID,-0.0509425,VALID,19.0219,VALID,226,VALID,1.38345,
1999-09-16, 01:38:00,VALID,0,VALID,97.5397,VALID,-0.0679233,VALID,19.0222,VALID,220,VALID,1.25942,
1999-09-16, 01:39:00,VALID,0,VALID,97.6872,VALID,-0.101885,VALID,19.0187,VALID,227,VALID,1.59128,
1999-09-16, 01:40:00,VALID,0,VALID,97.9186,VALID,-0.0679233,VALID,19.0023,VALID,225,VALID,1.1383,
1999-09-16, 01:41:00,VALID,0,VALID,98.0928,VALID,-0.0849042,VALID,18.9894,VALID,230,VALID,1.24363,
1999-09-16, 01:42:00,VALID,0,VALID,98.3167,VALID,-0.0679233,VALID,18.9836,VALID,223,VALID,1.41859,
1999-09-16, 01:43:00,VALID,0,VALID,98.4273,VALID,-0.0849042,VALID,18.9448,VALID,216,VALID,1.51758,
1999-09-16, 01:44:00,VALID,0,VALID,98.5862,VALID,-0.101885,VALID,18.9249,VALID,215,VALID,1.51999,
1999-09-16, 01:45:00,VALID,0,VALID,98.6969,VALID,-0.0679233,VALID,18.9187,VALID,220,VALID,1.38915,
1999-09-16, 01:46:00,VALID,0,VALID,98.6994,VALID,-0.0679233,VALID,18.9023,VALID,216,VALID,1.09536,
1999-09-16, 01:47:00,VALID,0,VALID,98.5405,VALID,-0.0339617,VALID,18.8628,VALID,216,VALID,1.0549,
1999-09-16, 01:48:00,VALID,0,VALID,98.3675,VALID,0.0169808,VALID,18.8681,VALID,209,VALID,0.983141,
1999-09-16, 01:49:00,VALID,0,VALID,98.1844,VALID,0,VALID,18.8852,VALID,204,VALID,1.03475,
1999-09-16, 01:50:00,VALID,0,VALID,97.9606,VALID,0.0169808,VALID,18.8979,VALID,218,VALID,0.923209,
1999-09-16, 01:51:00,VALID,0,VALID,97.6605,VALID,0,VALID,18.9178,VALID,214,VALID,0.876478,
1999-09-16, 01:52:00,VALID,0,VALID,97.3871,VALID,0,VALID,18.9337,VALID,214,VALID,1.03758,
1999-09-16, 01:53:00,VALID,0,VALID,97.115,VALID,0,VALID,18.9524,VALID,216,VALID,1.26131,
1999-09-16, 01:54:00,VALID,0,VALID,96.9611,VALID,0,VALID,18.9914,VALID,214,VALID,1.00801,
1999-09-16, 01:55:00,VALID,0,VALID,96.853,VALID,0.0339617,VALID,19.0046,VALID,211,VALID,1.03167,
1999-09-16, 01:56:00,VALID,0,VALID,96.8568,VALID,0.0169808,VALID,19.0008,VALID,217,VALID,0.784299,
1999-09-16, 01:57:00,VALID,0,VALID,96.7182,VALID,0.0169808,VALID,18.9979,VALID,211,VALID,0.957981,
1999-09-16, 01:58:00,VALID,0,VALID,96.6496,VALID,0.0169808,VALID,19.0078,VALID,210,VALID,0.915329,
1999-09-16, 01:59:00,VALID,0,VALID,96.5746,VALID,0.0169808,VALID,19.0105,VALID,201,VALID,1.0609,
1999-09-16, 02:00:00,VALID,0,VALID,96.4538,VALID,0,VALID,19.0362,VALID,185,VALID,0.808594,
1999-09-16, 02:01:00,VALID,0,VALID,96.3927,VALID,0,VALID,19.0662,VALID,194,VALID,0.824747,
1999-09-16, 02:02:00,VALID,0,VALID,96.3622,VALID,0,VALID,19.0695,VALID,172,VALID,0.452303,
1999-09-16, 02:03:00,VALID,0,VALID,96.3609,VALID,0,VALID,19.0299,VALID,138,VALID,0.444912,
1999-09-16, 02:04:00,VALID,0,VALID,96.5059,VALID,0,VALID,19.0145,VALID,140,VALID,0.197716,
1999-09-16, 02:05:00,VALID,0,VALID,96.6369,VALID,0,VALID,18.975,VALID,174,VALID,0.0600962,
1999-09-16, 02:06:00,VALID,0,VALID,96.703,VALID,0.0169808,VALID,18.9554,VALID,159,VALID,0.0746299,
1999-09-16, 02:07:00,VALID,0,VALID,96.675,VALID,0.0169808,VALID,18.9265,VALID,146,VALID,0.0078125,
1999-09-16, 02:08:00,VALID,0,VALID,96.7704,VALID,0.0339617,VALID,18.8914,VALID,126,VALID,0.716077,
1999-09-16, 02:09:00,VALID,0,VALID,96.8708,VALID,0,VALID,18.8429,VALID,134,VALID,0.819444,
1999-09-16, 02:10:00,VALID,0,VALID,97.0387,VALID,0,VALID,18.8078,VALID,143,VALID,0.70012,
1999-09-16, 02:11:00,VALID,0,VALID,97.1722,VALID,0,VALID,18.785,VALID,143,VALID,0.640419,
1999-09-16, 02:12:01,VALID,0,VALID,97.2676,VALID,0.0169808,VALID,18.7584,VALID,161,VALID,0.490282,
1999-09-16, 02:13:01,VALID,0,VALID,97.3757,VALID,0,VALID,18.7397,VALID,150,VALID,0.520059,
1999-09-16, 02:14:00,VALID,0,VALID,97.4888,VALID,0.0169808,VALID,18.7164,VALID,165,VALID,0.558093,
1999-09-16, 02:15:00,VALID,0,VALID,97.7444,VALID,0.0169808,VALID,18.7166,VALID,170,VALID,0.693051,
1999-09-16, 02:16:00,VALID,0,VALID,97.7635,VALID,0.0339617,VALID,18.7164,VALID,162,VALID,0.672297,
1999-09-16, 02:17:00,VALID,0,VALID,97.8029,VALID,0.0169808,VALID,18.7236,VALID,172,VALID,0.835732,
1999-09-16, 02:18:00,VALID,0,VALID,97.7533,VALID,0.0509425,VALID,18.7037,VALID,164,VALID,0.710115,
1999-09-16, 02:19:00,VALID,0,VALID,97.691,VALID,0.0509425,VALID,18.6843,VALID,176,VALID,0.613086,
1999-09-16, 02:20:00,VALID,0,VALID,97.9466,VALID,0.0169808,VALID,18.6718,VALID,186,VALID,1.02091,
1999-09-16, 02:21:00,VALID,0,VALID,98.2493,VALID,0,VALID,18.6746,VALID,188,VALID,0.802787,
1999-09-16, 02:22:00,VALID,0,VALID,98.4794,VALID,0.0169808,VALID,18.6748,VALID,203,VALID,1.09168,
1999-09-16, 02:23:00,VALID,0,VALID,98.8164,VALID,0.0509425,VALID,18.6905,VALID,202,VALID,1.44705,
1999-09-16, 02:24:00,VALID,0,VALID,98.955,VALID,0,VALID,18.6806,VALID,198,VALID,0.870477,
1999-09-16, 02:25:00,VALID,0,VALID,98.9614,VALID,0,VALID,18.6654,VALID,186,VALID,0.825863,
1999-09-16, 02:26:00,VALID,0,VALID,98.9881,VALID,0.0169808,VALID,18.6129,VALID,185,VALID,0.814215,
1999-09-16, 02:27:00,VALID,0,VALID,99.1775,VALID,0.0169808,VALID,18.6326,VALID,181,VALID,0.850296,
1999-09-16, 02:28:00,VALID,0,VALID,99.1394,VALID,0.0509425,VALID,18.6032,VALID,153,VALID,0.910051,
1999-09-16, 02:29:00,VALID,0,VALID,99.1483,VALID,0,VALID,18.5871,VALID,155,VALID,0.869655,
1999-09-16, 02:30:00,VALID,0,VALID,99.0656,VALID,0,VALID,18.5585,VALID,142,VALID,1.01191,
1999-09-16, 02:31:00,VALID,0,VALID,99.0491,VALID,0,VALID,18.5488,VALID,147,VALID,0.818834,
1999-09-16, 02:32:00,VALID,0,VALID,99.1279,VALID,0.0169808,VALID,18.5619,VALID,162,VALID,0.841082,
1999-09-16, 02:33:00,VALID,0,VALID,99.1368,VALID,0.0339617,VALID,18.5649,VALID,160,VALID,0.77766,
1999-09-16, 02:34:00,VALID,0,VALID,99.1788,VALID,0.0509425,VALID,18.5908,VALID,175,VALID,0.929688,
1999-09-16, 02:35:01,VALID,0,VALID,99.1228,VALID,0,VALID,18.6072,VALID,179,VALID,0.976563,
1999-09-16, 02:36:00,VALID,0,VALID,99.0936,VALID,0,VALID,18.6074,VALID,187,VALID,1.00761,
1999-09-16, 02:37:00,VALID,0,VALID,99.1114,VALID,0,VALID,18.6166,VALID,196,VALID,1.32559,
1999-09-16, 02:38:00,VALID,0,VALID,99.0402,VALID,0.0169808,VALID,18.6326,VALID,202,VALID,1.59745,
1999-09-16, 02:39:00,VALID,0,VALID,98.9296,VALID,0,VALID,18.6591,VALID,205,VALID,1.10617,
1999-09-16, 02:40:00,VALID,0,VALID,98.8189,VALID,0,VALID,18.6781,VALID,217,VALID,1.38682,
1999-09-16, 02:41:00,VALID,0,VALID,98.6028,VALID,0.0339617,VALID,18.6871,VALID,217,VALID,1.21895,
1999-09-16, 02:42:00,VALID,0,VALID,98.3065,VALID,0,VALID,18.6945,VALID,218,VALID,1.4229,
1999-09-16, 02:43:00,VALID,0,VALID,98.0712,VALID,0,VALID,18.727,VALID,219,VALID,1.03496,
1999-09-16, 02:44:00,VALID,0,VALID,97.8106,VALID,0,VALID,18.733,VALID,217,VALID,1.23664,
1999-09-16, 02:45:00,VALID,0,VALID,97.5804,VALID,0.0169808,VALID,18.7462,VALID,217,VALID,0.812066,
1999-09-16, 02:46:01,VALID,0,VALID,97.3642,VALID,0,VALID,18.739,VALID,213,VALID,1.02764,
1999-09-16, 02:47:00,VALID,0,VALID,97.1531,VALID,-0.0169808,VALID,18.7526,VALID,205,VALID,0.878701,
1999-09-16, 02:48:00,VALID,0,VALID,97.0463,VALID,-0.0339617,VALID,18.7626,VALID,190,VALID,0.599276,
1999-09-16, 02:49:00,VALID,0,VALID,97.0514,VALID,-0.0509425,VALID,18.7663,VALID,203,VALID,0.510769,
1999-09-16, 02:50:00,VALID,0,VALID,97.1569,VALID,-0.0509425,VALID,18.773,VALID,206,VALID,0.707933,
1999-09-16, 02:51:00,VALID,0,VALID,97.3299,VALID,-0.0339617,VALID,18.7531,VALID,196,VALID,0.841077,
1999-09-16, 02:52:00,VALID,0,VALID,97.5359,VALID,-0.0849042,VALID,18.7434,VALID,212,VALID,0.692145,
1999-09-16, 02:53:00,VALID,0,VALID,97.9695,VALID,-0.0679233,VALID,18.7536,VALID,226,VALID,0.940584,
1999-09-16, 02:54:00,VALID,0,VALID,98.2569,VALID,-0.0679233,VALID,18.7504,VALID,204,VALID,1.18483,
1999-09-16, 02:55:00,VALID,0,VALID,98.454,VALID,-0.0339617,VALID,18.7633,VALID,206,VALID,1.2125,
1999-09-16, 02:56:00,VALID,0,VALID,98.5633,VALID,-0.0679233,VALID,18.734,VALID,209,VALID,1.2909,
1999-09-16, 02:57:01,VALID,0,VALID,98.5633,VALID,-0.0509425,VALID,18.7185,VALID,196,VALID,0.967694,
1999-09-16, 02:58:00,VALID,0,VALID,98.6765,VALID,-0.0339617,VALID,18.6792,VALID,190,VALID,1.25276,
1999-09-16, 02:59:00,VALID,0,VALID,98.8011,VALID,-0.0509425,VALID,18.6795,VALID,197,VALID,1.42839,
1999-09-16, 03:00:00,VALID,0,VALID,98.7973,VALID,-0.0509425,VALID,18.6737,VALID,191,VALID,1.03207,
1999-09-16, 03:01:00,VALID,0,VALID,98.8011,VALID,-0.0509425,VALID,18.6536,VALID,188,VALID,1.06723,
1999-09-16, 03:02:00,VALID,0,VALID,98.7986,VALID,0,VALID,18.6531,VALID,196,VALID,1.17969,
1999-09-16, 03:03:00,VALID,0,VALID,98.763,VALID,-0.0509425,VALID,18.6698,VALID,209,VALID,1.2557,
1999-09-16, 03:04:00,VALID,0,VALID,98.6638,VALID,-0.0849042,VALID,18.6792,VALID,199,VALID,0.941512,
1999-09-16, 03:05:00,VALID,0,VALID,98.5494,VALID,-0.0169808,VALID,18.6755,VALID,220,VALID,0.855058,
1999-09-16, 03:06:00,VALID,0,VALID,98.4578,VALID,-0.0679233,VALID,18.6892,VALID,206,VALID,1.2832,
1999-09-16, 03:07:00,VALID,0,VALID,98.3434,VALID,-0.0509425,VALID,18.6825,VALID,211,VALID,1.11592,
1999-09-16, 03:08:01,VALID,0,VALID,98.248,VALID,-0.0509425,VALID,18.6598,VALID,212,VALID,1.11738,
1999-09-16, 03:09:00,VALID,0,VALID,98.1653,VALID,-0.0509425,VALID,18.628,VALID,213,VALID,1.23522,
1999-09-16, 03:10:00,VALID,0,VALID,98.1526,VALID,-0.0679233,VALID,18.6019,VALID,214,VALID,1.26415,
1999-09-16, 03:11:00,VALID,0,VALID,97.9822,VALID,-0.0679233,VALID,18.5495,VALID,205,VALID,1.26422,
1999-09-16, 03:12:00,VALID,0,VALID,97.8029,VALID,-0.0679233,VALID,18.5532,VALID,206,VALID,1.18832,
1999-09-16, 03:13:00,VALID,0,VALID,97.6503,VALID,-0.0509425,VALID,18.5398,VALID,210,VALID,1.25971,
1999-09-16, 03:14:00,VALID,0,VALID,97.5893,VALID,-0.0509425,VALID,18.5238,VALID,208,VALID,1.19696,
1999-09-16, 03:15:00,VALID,0,VALID,97.4965,VALID,-0.0339617,VALID,18.5211,VALID,199,VALID,1.5026,
1999-09-16, 03:16:00,VALID,0,VALID,97.3159,VALID,-0.0679233,VALID,18.5303,VALID,199,VALID,1.21014,
1999-09-16, 03:17:00,VALID,0,VALID,97.0794,VALID,-0.0339617,VALID,18.5469,VALID,196,VALID,1.2472,
1999-09-16, 03:18:00,VALID,0,VALID,96.82,VALID,-0.0679233,VALID,18.5696,VALID,194,VALID,1.2574,
1999-09-16, 03:19:00,VALID,0,VALID,96.4932,VALID,-0.0679233,VALID,18.6019,VALID,196,VALID,1.23223,
1999-09-16, 03:20:00,VALID,0,VALID,96.3368,VALID,-0.0679233,VALID,18.6248,VALID,197,VALID,0.957031,
1999-09-16, 03:21:00,VALID,0,VALID,96.4131,VALID,-0.0339617,VALID,18.6411,VALID,205,VALID,1.27431,
1999-09-16, 03:22:00,VALID,0,VALID,96.5021,VALID,-0.0509425,VALID,18.6603,VALID,196,VALID,1.30649,
1999-09-16, 03:23:00,VALID,0,VALID,96.6102,VALID,0,VALID,18.6758,VALID,190,VALID,1.32401,
1999-09-16, 03:24:00,VALID,0,VALID,96.4855,VALID,-0.0169808,VALID,18.6959,VALID,189,VALID,1.2984,
1999-09-16, 03:25:00,VALID,0,VALID,96.5567,VALID,-0.0509425,VALID,18.6822,VALID,195,VALID,1.48205,
1999-09-16, 03:26:00,VALID,0,VALID,96.4385,VALID,-0.0509425,VALID,18.6601,VALID,193,VALID,1.21935,
1999-09-16, 03:27:00,VALID,0,VALID,96.5949,VALID,0,VALID,18.6114,VALID,192,VALID,1.40275,
1999-09-16, 03:28:00,VALID,0,VALID,96.8085,VALID,-0.0849042,VALID,18.5989,VALID,194,VALID,1.18581,
1999-09-16, 03:29:00,VALID,0,VALID,96.7119,VALID,-0.0849042,VALID,18.5696,VALID,186,VALID,1.38281,
1999-09-16, 03:30:00,VALID,0,VALID,96.7818,VALID,-0.0509425,VALID,18.573,VALID,181,VALID,1.45127,
1999-09-16, 03:31:00,VALID,0,VALID,96.7259,VALID,-0.0679233,VALID,18.5599,VALID,188,VALID,1.43066,
1999-09-16, 03:32:00,VALID,0,VALID,96.6826,VALID,-0.0509425,VALID,18.5633,VALID,190,VALID,1.54573,
1999-09-16, 03:33:00,VALID,0,VALID,96.6216,VALID,0.0509425,VALID,18.5656,VALID,195,VALID,1.57834,
1999-09-16, 03:34:00,VALID,0,VALID,96.7068,VALID,0.0169808,VALID,18.5783,VALID,187,VALID,1.56158,
1999-09-16, 03:35:00,VALID,0,VALID,96.5122,VALID,0.0169808,VALID,18.5813,VALID,192,VALID,1.49392,
1999-09-16, 03:36:00,VALID,0,VALID,96.221,VALID,0.0679233,VALID,18.594,VALID,188,VALID,1.26419,
1999-09-16, 03:37:00,VALID,0,VALID,96.0354,VALID,0.0339617,VALID,18.6044,VALID,180,VALID,1.14124,
1999-09-16, 03:38:00,VALID,0,VALID,95.9604,VALID,0,VALID,18.5853,VALID,187,VALID,1.46589,
1999-09-16, 03:39:00,VALID,0,VALID,95.9566,VALID,0.0509425,VALID,18.5622,VALID,167,VALID,1.08615,
1999-09-16, 03:40:01,VALID,0,VALID,96.0074,VALID,0.0169808,VALID,18.5398,VALID,169,VALID,1.05532,
1999-09-16, 03:41:01,VALID,0,VALID,95.982,VALID,0.0169808,VALID,18.5005,VALID,161,VALID,1.01789,
1999-09-16, 03:42:00,VALID,0,VALID,96.0621,VALID,0.0339617,VALID,18.4486,VALID,154,VALID,1.04668,
1999-09-16, 03:43:00,VALID,0,VALID,96.188,VALID,0.0169808,VALID,18.4135,VALID,166,VALID,0.978674,
1999-09-16, 03:44:00,VALID,0,VALID,96.1613,VALID,0.0339617,VALID,18.398,VALID,162,VALID,0.949124,
1999-09-16, 03:45:00,VALID,0,VALID,96.0112,VALID,0.0339617,VALID,18.4107,VALID,181,VALID,1.40245,
1999-09-16, 03:46:00,VALID,0,VALID,95.598,VALID,0.0509425,VALID,18.449,VALID,181,VALID,1.29582,
1999-09-16, 03:47:00,VALID,0,VALID,95.3576,VALID,0.0169808,VALID,18.4786,VALID,193,VALID,1.44411,
1999-09-16, 03:48:00,VALID,0,VALID,95.186,VALID,0,VALID,18.4947,VALID,185,VALID,1.35444,
1999-09-16, 03:49:00,VALID,0,VALID,94.9761,VALID,0,VALID,18.501,VALID,194,VALID,1.37669,
1999-09-16, 03:50:00,VALID,0,VALID,94.8833,VALID,0,VALID,18.5049,VALID,204,VALID,1.42701,
1999-09-16, 03:51:00,VALID,0,VALID,94.7816,VALID,0.0169808,VALID,18.4915,VALID,205,VALID,1.24359,
1999-09-16, 03:52:01,VALID,0,VALID,95.1326,VALID,0.0169808,VALID,18.4816,VALID,208,VALID,1.27804,
1999-09-16, 03:53:00,VALID,0,VALID,95.6437,VALID,0,VALID,18.501,VALID,204,VALID,1.48077,
1999-09-16, 03:54:00,VALID,0,VALID,95.8434,VALID,0,VALID,18.5301,VALID,204,VALID,1.18298,
1999-09-16, 03:55:00,VALID,0,VALID,95.8103,VALID,0.0169808,VALID,18.5206,VALID,199,VALID,0.898242,
1999-09-16, 03:56:00,VALID,0,VALID,96.1079,VALID,0,VALID,18.504,VALID,192,VALID,0.908306,
1999-09-16, 03:57:00,VALID,0,VALID,96.0316,VALID,0.0169808,VALID,18.4947,VALID,204,VALID,0.969835,
1999-09-16, 03:58:00,VALID,0,VALID,96.0405,VALID,0,VALID,18.4984,VALID,203,VALID,0.933894,
1999-09-16, 03:59:00,VALID,0,VALID,96.2096,VALID,0,VALID,18.5079,VALID,195,VALID,0.891653,
1999-09-16, 04:00:00,VALID,0,VALID,96.2846,VALID,0.0169808,VALID,18.4878,VALID,216,VALID,0.854802,
1999-09-16, 04:01:01,VALID,0,VALID,96.5911,VALID,0.0169808,VALID,18.4883,VALID,210,VALID,1.072,
1999-09-16, 04:02:00,VALID,0,VALID,96.8797,VALID,0,VALID,18.4622,VALID,203,VALID,0.963942,